ěÝzenÝ letovÚho provozu ╚eskÚ republiky
Letiste: LKPR Aktualizace: 27.10.2020 01:30:27  UTC
 METAR LKPR 27.10. 01:30 ...
METAR LKPR 270130Z 23007KT 9999 -RA FEW045 08/07 Q1009 NOSIG RMK REG QNH 1006=
 TAF LKPR 26.10. 23:00 ...
TAF LKPR 262300Z 2700/2806 23008KT 9999 BKN022      TEMPO 2700/2709 -RA BKN012      PROB30 TEMPO 2700/2707 22004KT 4000 BR BKN006      BECMG 2712/2714 CAVOK      BECMG 2720/2722 4000 BR NSC      TEMPO 2722/2806 2000 MIFG=